Retour au catalogue

STARLINK-34669

ActifCommunicationsVLEO
NORAD 64811·PAYLOAD·🇺🇸 United States

Lancé Jul 16, 2025 depuis Vandenberg Space Force Base

Loading…

Prochains Passages (prochaines 24 heures)

TLE

FraisSource: CelesTrak SupGP

Époque: Sep 15, 2026, 03:22 UTC

1 64811C 25150X   26258.14076389  .00050014  00000+0  41920-2 0  2589
2 64811  70.0030  16.6366 0003129 267.8263 257.4631 14.98299730    10

Suivez STARLINK-34669 en temps réel avec AllMySat

Download on the App Store